#timestamp,LO_Frequency,Hit,StdDev 
1647298815.7,286046997.4,N
1647298835.5,286046999.3,N
1647298855.4,286046998.5,N
1647298875.2,286046999.1,N
1647298895.0,286046997.1,N
1647298895.9,286046997.1,N
1647298915.8,286046997.1,N
1647298935.6,286046997.6,N
1647298955.4,286046997.6,N
1647298975.3,286046995.1,Y
1647298995.1,286046997.1,P
1647299015.9,286046999.4,N
1647299035.7,286046999.0,N
1647299055.5,286046998.6,N
1647299075.4,286046999.2,N
1647299095.2,286046996.9,Y
1647299115.1,286047001.2,P
1647299116.0,286047001.2,N
1647299135.8,286047002.8,N
1647299155.6,286047004.1,N
1647299175.5,286047001.4,N
1647299195.3,286047002.2,N
1647299215.1,286046998.5,N
1647299235.9,286047002.3,N
1647299255.7,286046999.7,N
1647299275.6,286047001.9,N
1647299295.4,286047001.7,N
1647299315.2,286047000.2,N
1647299335.1,286047000.0,N
1647299336.0,286047000.0,N
1647299355.8,286047001.0,N
1647299375.6,286046998.9,N
1647299395.5,286047000.8,N
1647299415.3,286047001.2,N
1647299435.2,286047000.4,N
1647299455.9,286047000.4,N
1647299475.7,286047000.1,N
1647299495.6,286046999.9,N
1647299515.4,286047000.4,N
1647299535.2,286047001.1,N
1647299555.1,286047002.8,N
1647299556.0,286047002.8,N
1647299575.8,286046998.5,N
1647299595.7,286047000.0,N
1647299615.5,286046999.8,N
1647299635.3,286047000.0,N
1647299655.2,286047002.3,N
1647299675.0,286046999.8,N
1647299675.9,286046999.8,N
1647299695.7,286047000.1,N
1647299715.6,286047000.5,N
1647299735.4,286046998.2,N
1647299755.3,286046998.9,N
1647299775.1,286046998.4,N
1647299776.0,286046998.4,N
1647299795.8,286046999.2,N
1647299815.7,286046998.7,N
1647299835.5,286046999.0,N
1647299855.4,286046996.7,N
1647299875.2,286046996.6,N
1647299895.0,286046998.2,N
1647299895.9,286046998.2,N
1647299915.8,286046998.4,N
1647299935.6,286046999.0,N
1647299955.4,286046996.6,N
1647299975.3,286046999.1,N
1647299995.1,286046997.1,N
1647300015.9,286046997.8,N
1647300035.7,286046997.4,N
1647300055.5,286046999.6,N
1647300075.4,286047000.8,N
1647300095.2,286046998.9,N
1647300115.0,286046996.6,N
1647300115.9,286046996.6,N
1647300135.8,286046997.4,N
1647300155.8,286046997.7,N
1647300175.7,286046996.7,N
1647300195.5,286046995.3,Y
1647300215.4,286046999.5,P
1647300235.2,286046998.7,N
1647300255.0,286046999.6,N
1647300255.9,286046999.6,N
1647300275.8,286047000.2,N
1647300295.6,286047001.1,N
1647300315.4,286047000.2,N
1647300335.3,286047000.5,N
1647300355.1,286047000.5,N
1647300375.9,286046998.1,N
1647300395.7,286046999.3,N
1647300415.5,286046999.4,N
1647300435.4,286046999.0,N
1647300455.2,286046998.3,N
1647300475.0,286047000.2,N
1647300475.9,286047000.2,N
1647300495.8,286047011.9,Y
1647300515.6,286047002.5,P
1647300535.5,286047000.0,N
1647300555.3,286046999.7,N
1647300575.1,286046998.8,N
1647300595.9,286046998.5,N
1647300615.7,286047000.4,N
1647300635.5,286047000.4,N
1647300655.4,286047000.3,N
1647300675.2,286046999.8,N
1647300695.1,286047002.7,N
1647300696.0,286047002.7,N
1647300715.8,286047000.9,N
1647300735.6,286046999.3,N
1647300755.5,286047000.2,N
1647300775.3,286046998.5,N
1647300795.2,286046998.5,N
1647300815.9,286047000.8,N
1647300835.7,286047001.9,N
1647300855.6,286047004.2,Y
1647300875.4,286047002.1,P
1647300895.3,286047004.4,P
1647300915.1,286047002.5,N
1647300916.0,286047002.5,N
1647300935.8,286047001.3,N
1647300955.7,286047002.4,N
1647300975.5,286047000.2,N
1647300995.3,286047001.0,N
1647301015.2,286047000.0,N
1647301035.0,286047000.2,N
1647301035.9,286047000.2,N
1647301055.8,286047002.4,N
1647301075.6,286046999.7,N
1647301095.4,286047002.7,N
1647301115.3,286047003.8,N
1647301135.1,286047000.5,N
1647301155.9,286046998.8,N
1647301175.7,286046998.2,N
1647301195.5,286046998.7,N
1647301215.4,286046998.6,N
1647301235.2,286046999.8,N
1647301255.0,286047000.9,N
1647301255.9,286047000.9,N
1647301275.8,286047002.5,N
1647301295.6,286047002.1,N
1647301315.5,286047002.2,N
1647301335.3,286047002.5,N
1647301355.1,286047002.6,N
1647301375.9,286046999.7,N
1647301395.7,286047002.5,N
1647301415.5,286047001.9,N
1647301435.4,286047002.2,N
1647301455.2,286047001.9,N
1647301475.1,286047002.3,N
1647301476.0,286047002.3,N
1647301495.8,286047002.5,N
1647301515.6,286047001.8,N
1647301535.5,286047001.9,N
1647301555.3,286047001.5,N
1647301575.1,286047001.9,N
1647301595.9,286047003.6,N
1647301615.7,286047003.1,N
1647301635.6,286047002.1,N
1647301655.4,286046999.7,N
1647301675.2,286047001.6,N
1647301695.1,286047002.7,N
1647301696.0,286047002.7,N
1647301715.8,286047002.5,N
1647301735.7,286047004.3,Y
1647301755.5,286047000.6,P
1647301775.3,286047000.4,N
1647301795.2,286047000.6,N
1647301815.0,286046999.8,N
1647301815.9,286046999.8,N
1647301835.8,286047000.6,N
1647301855.6,286047001.6,N
1647301875.4,286047002.3,Y
1647301895.3,286046998.2,P
1647301915.1,286046998.7,N
1647301935.8,286046998.3,N
1647301955.7,286046999.5,N
1647301975.5,286046998.2,N
1647301995.4,286046997.0,Y
1647302015.2,286046999.6,P
1647302035.0,286046999.1,N
1647302035.9,286046999.1,P
1647302055.8,286046998.9,Y
1647302075.6,286047000.8,P
1647302095.5,286046998.2,N
1647302115.3,286046998.3,N
1647302135.1,286046997.1,N
1647302155.9,286046996.5,N
1647302175.7,286046998.6,N
1647302195.6,286047000.3,N
1647302215.4,286047002.8,N
1647302235.2,286047002.6,N
1647302255.1,286047000.6,N
1647302256.0,286047000.6,N
1647302275.8,286046998.5,N
1647302295.6,286046998.2,N
1647302315.5,286046998.4,N
1647302335.3,286046998.5,N
1647302355.2,286046997.1,N
1647302375.9,286046997.2,N
1647302395.7,286046997.5,N
